This is the latest recevied weather packets stored in our database for station/object W0AVQ. If no packets are shown the sender has not sent any weather packets the latest 10 day(s).
| Time | Temp. | Humidity | Pressure | Rain* | Wind** | Luminosity | Snow |
|---|---|---|---|---|---|---|---|
| 1778023578 | 11.67° C | 99% | 1009.2 hPa | 0 mm | - | 3 W/m² | - |
| 1778023275 | 11.67° C | 99% | 1009.1 hPa | 0 mm | - | 5 W/m² | - |
| 1778022972 | 11.67° C | 99% | 1008.6 hPa | 0 mm | - | 10 W/m² | - |
| 1778022671 | 11.67° C | 99% | 1008.4 hPa | 0 mm | - | 13 W/m² | - |
| 1778022368 | 11.67° C | 99% | 1008.4 hPa | 0 mm | - | 14 W/m² | - |
| 1778022064 | 11.67° C | 99% | 1008.6 hPa | 0 mm | - | 26 W/m² | - |
| 1778021761 | 11.67° C | 99% | 1008.7 hPa | 0 mm | - | 48 W/m² | - |
| 1778021457 | 11.67° C | 99% | 1008.7 hPa | 0 mm | - | 46 W/m² | - |
| 1778021154 | 11.67° C | 99% | 1008.5 hPa | 0 mm | - | 44 W/m² | - |
| 1778020851 | 11.67° C | 99% | 1009 hPa | 1.27 mm | - | 47 W/m² | - |
| 1778020548 | 11.67° C | 99% | 1009 hPa | 1.27 mm | - | 80 W/m² | - |
| 1778020244 | 11.67° C | 99% | 1009.4 hPa | 0 mm | - | 88 W/m² | - |
| 1778019941 | 11.67° C | 99% | 1009.9 hPa | 0 mm | - | 38 W/m² | - |
| 1778019637 | 11.67° C | 99% | 1010.2 hPa | 0 mm | - | 18 W/m² | - |
| 1778019334 | 11.67° C | 99% | 1009.8 hPa | 0 mm | - | 11 W/m² | - |
| 1778019031 | 11.67° C | 99% | 1009.6 hPa | 0 mm | - | 19 W/m² | - |
| 1778018728 | 12.22° C | 99% | 1009.5 hPa | 0 mm | - | 42 W/m² | - |
| 1778018426 | 12.22° C | 99% | 1009.3 hPa | 0 mm | - | 40 W/m² | - |
| 1778018124 | 12.22° C | 99% | 1009.3 hPa | 0 mm | - | 42 W/m² | - |
| 1778017821 | 12.22° C | 99% | 1009.2 hPa | 1.78 mm | - | 63 W/m² | - |
| 1778017519 | 12.22° C | 99% | 1009.3 hPa | 1.78 mm | - | 76 W/m² | - |
| 1778017216 | 12.22° C | 99% | 1009.7 hPa | 0 mm | - | 75 W/m² | - |
| 1778016914 | 12.22° C | 99% | 1009.5 hPa | 0 mm | - | 67 W/m² | - |
| 1778016610 | 12.22° C | 99% | 1009.7 hPa | 0 mm | - | 71 W/m² | - |
| 1778016306 | 12.22° C | 99% | 1009.7 hPa | 0 mm | - | 64 W/m² | - |
* Rain latest hour (hover to see other rain measurements)
** Current wind speed in m/s (hover to see current wind gust speed)